Вернуться в каталог

STARLINK-37448

АктивенСвязьVLEO
NORAD 100041·PAYLOAD·🇺🇸 United States

Запущен Jul 14, 2026 с Cape Canaveral Space Force Station

Loading…

Ближайшие Пролёты (ближайшие 24 часа)

TLE

УстаревающийSource: Space-Track

Эпоха: Sep 13, 2026, 15:59 UTC

1 A0041U 26161P   26256.66630828  .00018828  00000-0  56671-3 0  9996
2 A0041  53.1598  29.4920 0000980  76.2912 283.8200 15.34414937  9562

Отслеживайте STARLINK-37448 в реальном времени с AllMySat

Download on the App Store